Time,TemperatureF,DewpointF,PressureIn,WindDirection,WindDirectionDegrees,WindSpeedMPH,WindSpeedGustMPH,Humidity,HourlyPrecipIn,Conditions,Clouds,dailyrainin,SolarRadiationWatts/m^2,SoftwareType,DateUTC
2013-03-31 00:00:00,35.4,16.7,30.06,NW,315,0.0,0.0,46,0.00,CLR,FEW,0.00,0.0,WeatherDisplay:10.37,2013-03-31 04:00:00,
2013-03-31 00:05:00,35.2,16.5,30.06,NW,315,0.0,0.0,46,0.00,CLR,FEW,0.00,0.0,WeatherDisplay:10.37,2013-03-31 04:05:00,
2013-03-31 00:10:00,35.1,17.8,30.08,NW,315,0.0,0.0,49,0.00,CLR,FEW,0.00,0.0,WeatherDisplay:10.37,2013-03-31 04:10:00,
2013-03-31 00:15:00,35.1,17.8,30.08,NW,315,0.0,0.0,49,0.00,CLR,FEW,0.00,0.0,WeatherDisplay:10.37,2013-03-31 04:15:00,
2013-03-31 00:20:00,35.1,17.8,30.08,NW,315,0.0,0.0,49,0.00,CLR,FEW,0.00,0.0,WeatherDisplay:10.37,2013-03-31 04:20:00,
2013-03-31 00:25:00,34.9,17.6,30.08,NW,315,0.0,0.0,49,0.00,CLR,FEW,0.00,0.0,WeatherDisplay:10.37,2013-03-31 04:25:00,
2013-03-31 00:30:00,34.7,17.5,30.08,NW,315,0.0,0.0,49,0.00,CLR,FEW,0.00,0.0,WeatherDisplay:10.37,2013-03-31 04:30:00,
2013-03-31 00:35:00,34.3,18.5,30.08,NW,315,0.0,0.0,52,0.00,CLR,FEW,0.00,0.0,WeatherDisplay:10.37,2013-03-31 04:35:00,
2013-03-31 00:40:00,34.0,18.2,30.08,NW,315,0.0,0.0,52,0.00,CLR,FEW,0.00,0.0,WeatherDisplay:10.37,2013-03-31 04:40:00,
2013-03-31 00:45:00,33.6,17.8,30.08,NW,315,0.0,0.0,52,0.00,CLR,FEW,0.00,0.0,WeatherDisplay:10.37,2013-03-31 04:45:00,
2013-03-31 00:50:00,33.6,19.2,30.08,NW,315,0.0,0.0,55,0.00,CLR,FEW,0.00,0.0,WeatherDisplay:10.37,2013-03-31 04:50:00,
2013-03-31 00:55:00,33.4,19.8,30.08,NW,315,0.0,0.0,57,0.00,CLR,FEW,0.00,0.0,WeatherDisplay:10.37,2013-03-31 04:55:00,
2013-03-31 01:00:00,33.3,19.7,30.08,NW,315,0.0,0.0,57,0.00,CLR,FEW,0.00,0.0,WeatherDisplay:10.37,2013-03-31 05:00:00,
2013-03-31 01:05:00,33.3,19.7,30.08,NW,315,0.0,0.0,57,0.00,CLR,FEW,0.00,0.0,WeatherDisplay:10.37,2013-03-31 05:05:00,
2013-03-31 01:10:00,33.1,19.9,30.08,NW,315,0.0,0.0,58,0.00,CLR,FEW,0.00,0.0,WeatherDisplay:10.37,2013-03-31 05:10:00,
2013-03-31 01:15:00,32.9,19.7,30.08,NW,315,0.0,0.0,58,0.00,CLR,FEW,0.00,0.0,WeatherDisplay:10.37,2013-03-31 05:15:00,
2013-03-31 01:20:00,32.7,19.6,30.08,NW,318,0.0,0.0,58,0.00,CLR,FEW,0.00,0.0,WeatherDisplay:10.37,2013-03-31 05:20:00,
2013-03-31 01:25:00,32.5,19.4,30.08,NW,321,0.0,0.0,58,0.00,CLR,FEW,0.00,0.0,WeatherDisplay:10.37,2013-03-31 05:25:00,
2013-03-31 01:30:00,32.5,19.4,30.08,NW,321,0.0,0.0,58,0.00,CLR,FEW,0.00,0.0,WeatherDisplay:10.37,2013-03-31 05:30:00,
2013-03-31 01:35:00,32.4,19.2,30.08,NW,321,0.0,0.0,58,0.00,CLR,FEW,0.00,0.0,WeatherDisplay:10.37,2013-03-31 05:35:00,
2013-03-31 01:40:00,32.2,19.0,30.08,NW,321,0.0,0.0,58,0.00,CLR,FEW,0.00,0.0,WeatherDisplay:10.37,2013-03-31 05:40:00,
2013-03-31 01:45:00,32.0,19.3,30.08,NW,321,0.0,0.0,59,0.00,CLR,FEW,0.00,0.0,WeatherDisplay:10.37,2013-03-31 05:45:00,
2013-03-31 01:50:00,32.0,19.3,30.08,NW,321,0.0,0.0,59,0.00,CLR,FEW,0.00,0.0,WeatherDisplay:10.37,2013-03-31 05:50:00,
2013-03-31 01:55:00,31.8,19.1,30.08,NW,321,0.0,0.0,59,0.00,CLR,FEW,0.00,0.0,WeatherDisplay:10.37,2013-03-31 05:55:00,
2013-03-31 02:00:00,31.8,19.1,30.08,NW,321,0.0,0.0,59,0.00,CLR,FEW,0.00,0.0,WeatherDisplay:10.37,2013-03-31 06:00:00,
2013-03-31 02:05:00,31.8,19.1,30.08,NW,321,0.0,0.0,59,0.00,CLR,FEW,0.00,0.0,WeatherDisplay:10.37,2013-03-31 06:05:00,
2013-03-31 02:10:00,31.6,19.3,30.08,NW,321,0.0,0.0,60,0.00,CLR,FEW,0.00,0.0,WeatherDisplay:10.37,2013-03-31 06:10:00,
2013-03-31 02:15:00,31.5,19.2,30.08,NW,321,0.0,0.0,60,0.00,CLR,FEW,0.00,0.0,WeatherDisplay:10.37,2013-03-31 06:15:00,
2013-03-31 02:20:00,31.3,19.0,30.08,NW,321,0.0,0.0,60,0.00,CLR,FEW,0.00,0.0,WeatherDisplay:10.37,2013-03-31 06:20:00,
2013-03-31 02:25:00,31.1,18.8,30.08,NW,321,0.0,0.0,60,0.00,CLR,FEW,0.00,0.0,WeatherDisplay:10.37,2013-03-31 06:25:00,
2013-03-31 02:30:00,31.1,19.2,30.08,NW,321,0.0,0.0,61,0.00,CLR,FEW,0.00,0.0,WeatherDisplay:10.37,2013-03-31 06:30:00,
2013-03-31 02:35:00,30.9,19.0,30.08,NW,321,0.0,0.0,61,0.00,CLR,FEW,0.00,0.0,WeatherDisplay:10.37,2013-03-31 06:35:00,
2013-03-31 02:40:00,30.7,19.2,30.08,NW,321,0.0,0.0,62,0.00,CLR,FEW,0.00,0.0,WeatherDisplay:10.37,2013-03-31 06:40:00,
2013-03-31 02:45:00,30.6,19.1,30.08,NW,321,0.0,0.0,62,0.00,CLR,FEW,0.00,0.0,WeatherDisplay:10.37,2013-03-31 06:45:00,
2013-03-31 02:50:00,30.4,19.3,30.08,NW,321,0.0,0.0,63,0.00,CLR,FEW,0.00,0.0,WeatherDisplay:10.37,2013-03-31 06:50:00,
2013-03-31 02:55:00,30.2,19.5,30.08,NW,321,0.0,0.0,64,0.00,CLR,FEW,0.00,0.0,WeatherDisplay:10.37,2013-03-31 06:55:00,
2013-03-31 03:00:00,30.2,19.5,30.08,NW,321,0.0,0.0,64,0.00,CLR,FEW,0.00,0.0,WeatherDisplay:10.37,2013-03-31 07:00:00,
2013-03-31 03:05:00,30.0,19.3,30.08,NW,321,0.0,0.0,64,0.00,CLR,FEW,0.00,0.0,WeatherDisplay:10.37,2013-03-31 07:05:00,
2013-03-31 03:10:00,30.0,19.7,30.08,NW,321,0.0,0.0,65,0.00,CLR,FEW,0.00,0.0,WeatherDisplay:10.37,2013-03-31 07:10:00,
2013-03-31 03:15:00,29.8,19.9,30.08,NW,321,0.0,0.0,66,0.00,CLR,FEW,0.00,0.0,WeatherDisplay:10.37,2013-03-31 07:15:00,
2013-03-31 03:20:00,29.7,19.7,30.08,NW,321,0.0,0.0,66,0.00,CLR,FEW,0.00,0.0,WeatherDisplay:10.37,2013-03-31 07:20:00,
2013-03-31 03:25:00,29.7,20.0,30.08,NW,321,0.0,0.0,67,0.00,CLR,FEW,0.00,0.0,WeatherDisplay:10.37,2013-03-31 07:25:00,
2013-03-31 03:30:00,29.5,19.9,30.08,NW,321,0.0,0.0,67,0.00,CLR,FEW,0.00,0.0,WeatherDisplay:10.37,2013-03-31 07:30:00,
2013-03-31 03:35:00,29.5,19.9,30.08,NW,321,0.0,0.0,67,0.00,CLR,FEW,0.00,0.0,WeatherDisplay:10.37,2013-03-31 07:35:00,
2013-03-31 03:40:00,29.5,20.2,30.08,NW,321,0.0,0.0,68,0.00,CLR,FEW,0.00,0.0,WeatherDisplay:10.37,2013-03-31 07:40:00,
2013-03-31 03:45:00,29.5,20.2,30.08,NW,321,0.0,0.0,68,0.00,CLR,FEW,0.00,0.0,WeatherDisplay:10.37,2013-03-31 07:45:00,
2013-03-31 03:50:00,29.5,20.2,30.08,NW,321,0.0,0.0,68,0.00,CLR,FEW,0.00,0.0,WeatherDisplay:10.37,2013-03-31 07:50:00,
2013-03-31 03:55:00,29.5,20.2,30.08,NW,319,0.0,0.0,68,0.00,CLR,FEW,0.00,0.0,WeatherDisplay:10.37,2013-03-31 07:55:00,
2013-03-31 04:00:00,29.5,20.2,30.08,WNW,294,0.0,0.0,68,0.00,CLR,FEW,0.00,0.0,WeatherDisplay:10.37,2013-03-31 08:00:00,
2013-03-31 04:05:00,29.3,20.0,30.08,WNW,296,0.0,0.0,68,0.00,CLR,FEW,0.00,0.0,WeatherDisplay:10.37,2013-03-31 08:05:00,
2013-03-31 04:10:00,29.3,20.0,30.08,WNW,301,0.0,0.0,68,0.00,CLR,FEW,0.00,0.0,WeatherDisplay:10.37,2013-03-31 08:10:00,
2013-03-31 04:15:00,29.3,20.0,30.08,NW,311,0.0,0.0,68,0.00,CLR,FEW,0.00,0.0,WeatherDisplay:10.37,2013-03-31 08:15:00,
2013-03-31 04:20:00,29.3,20.0,30.08,NW,308,0.0,0.0,68,0.00,CLR,FEW,0.00,0.0,WeatherDisplay:10.37,2013-03-31 08:20:00,
2013-03-31 04:25:00,29.3,20.0,30.08,NW,308,0.0,0.0,68,0.00,CLR,FEW,0.00,0.0,WeatherDisplay:10.37,2013-03-31 08:25:00,
2013-03-31 04:30:00,29.3,20.0,30.08,NW,308,0.0,0.0,68,0.00,CLR,FEW,0.00,0.0,WeatherDisplay:10.37,2013-03-31 08:30:00,
2013-03-31 04:35:00,29.5,20.6,30.08,NW,308,0.0,0.0,69,0.00,CLR,FEW,0.00,0.0,WeatherDisplay:10.37,2013-03-31 08:35:00,
2013-03-31 04:40:00,29.5,20.6,30.08,NW,308,0.0,0.0,69,0.00,CLR,FEW,0.00,0.0,WeatherDisplay:10.37,2013-03-31 08:40:00,
2013-03-31 04:45:00,29.3,20.4,30.08,NW,308,0.0,0.0,69,0.00,CLR,FEW,0.00,0.0,WeatherDisplay:10.37,2013-03-31 08:45:00,
2013-03-31 04:50:00,29.1,20.2,30.08,NW,308,0.0,0.0,69,0.00,CLR,FEW,0.00,0.0,WeatherDisplay:10.37,2013-03-31 08:50:00,
2013-03-31 04:56:00,28.9,20.0,30.08,NW,308,0.0,0.0,69,0.00,CLR,FEW,0.00,0.0,WeatherDisplay:10.37,2013-03-31 08:56:00,
2013-03-31 05:01:00,28.8,19.9,30.08,NW,313,0.0,0.0,69,0.00,CLR,FEW,0.00,0.0,WeatherDisplay:10.37,2013-03-31 09:01:00,
2013-03-31 05:06:00,28.8,19.9,30.08,NW,311,0.0,0.0,69,0.00,CLR,FEW,0.00,0.0,WeatherDisplay:10.37,2013-03-31 09:06:00,
2013-03-31 05:11:00,28.8,19.9,30.08,NW,311,0.0,0.0,69,0.00,CLR,FEW,0.00,0.0,WeatherDisplay:10.37,2013-03-31 09:11:00,
2013-03-31 05:16:00,28.8,19.9,30.08,NW,312,0.0,0.0,69,0.00,CLR,FEW,0.00,0.0,WeatherDisplay:10.37,2013-03-31 09:16:00,
2013-03-31 05:21:00,28.6,19.7,30.08,NW,312,0.0,0.0,69,0.00,CLR,FEW,0.00,0.0,WeatherDisplay:10.37,2013-03-31 09:21:00,
2013-03-31 05:26:00,28.6,19.7,30.08,NW,312,0.0,0.0,69,0.00,CLR,FEW,0.00,0.0,WeatherDisplay:10.37,2013-03-31 09:26:00,
2013-03-31 05:31:00,28.4,19.9,30.08,NW,312,0.0,0.0,70,0.00,CLR,FEW,0.00,0.0,WeatherDisplay:10.37,2013-03-31 09:31:00,
2013-03-31 05:36:00,28.4,19.9,30.08,NW,311,0.0,0.0,70,0.00,CLR,FEW,0.00,0.0,WeatherDisplay:10.37,2013-03-31 09:36:00,
2013-03-31 05:41:00,28.4,19.9,30.08,NW,312,0.0,0.0,70,0.00,CLR,FEW,0.00,0.0,WeatherDisplay:10.37,2013-03-31 09:41:00,
2013-03-31 05:46:00,28.4,19.9,30.08,NW,312,0.0,0.0,70,0.00,CLR,FEW,0.00,0.0,WeatherDisplay:10.37,2013-03-31 09:46:00,
2013-03-31 05:51:00,28.4,20.2,30.08,NW,311,0.0,0.0,71,0.00,CLR,FEW,0.00,0.0,WeatherDisplay:10.37,2013-03-31 09:51:00,
2013-03-31 05:57:00,28.2,20.0,30.08,NW,312,0.0,0.0,71,0.00,CLR,FEW,0.00,0.0,WeatherDisplay:10.37,2013-03-31 09:57:00,
2013-03-31 06:02:00,28.0,19.8,30.08,NW,311,0.0,0.0,71,0.00,CLR,FEW,0.00,0.0,WeatherDisplay:10.37,2013-03-31 10:02:00,
2013-03-31 06:07:00,28.0,19.8,30.08,NW,311,0.0,0.0,71,0.00,CLR,FEW,0.00,0.0,WeatherDisplay:10.37,2013-03-31 10:07:00,
2013-03-31 06:12:00,28.0,19.8,30.08,NW,312,0.0,0.0,71,0.00,CLR,FEW,0.00,0.0,WeatherDisplay:10.37,2013-03-31 10:12:00,
2013-03-31 06:17:00,27.9,19.7,30.08,NW,312,0.0,0.0,71,0.00,CLR,FEW,0.00,0.0,WeatherDisplay:10.37,2013-03-31 10:17:00,
2013-03-31 06:22:00,27.9,19.7,30.08,NW,311,0.0,0.0,71,0.00,CLR,FEW,0.00,0.0,WeatherDisplay:10.37,2013-03-31 10:22:00,
2013-03-31 06:27:00,27.9,19.7,30.08,NW,312,0.0,0.0,71,0.00,CLR,FEW,0.00,0.0,WeatherDisplay:10.37,2013-03-31 10:27:00,
2013-03-31 06:32:00,27.9,20.0,30.08,NW,312,0.0,0.0,72,0.00,CLR,FEW,0.00,0.0,WeatherDisplay:10.37,2013-03-31 10:32:00,
2013-03-31 06:37:00,27.9,20.0,30.08,NW,312,0.0,0.0,72,0.00,CLR,FEW,0.00,0.0,WeatherDisplay:10.37,2013-03-31 10:37:00,
2013-03-31 06:42:00,27.9,20.0,30.08,NW,311,0.0,0.0,72,0.00,CLR,FEW,0.00,0.0,WeatherDisplay:10.37,2013-03-31 10:42:00,
2013-03-31 06:47:00,27.9,20.0,30.08,NW,311,0.0,0.0,72,0.00,CLR,FEW,0.00,0.0,WeatherDisplay:10.37,2013-03-31 10:47:00,
2013-03-31 06:52:00,27.9,20.0,30.08,NW,312,0.0,0.0,72,0.00,CLR,FEW,0.00,0.0,WeatherDisplay:10.37,2013-03-31 10:52:00,
2013-03-31 06:57:00,27.9,20.0,30.08,NW,312,0.0,0.0,72,0.00,CLR,FEW,0.00,0.0,WeatherDisplay:10.37,2013-03-31 10:57:00,
2013-03-31 07:02:00,27.9,20.3,30.08,NW,311,0.0,0.0,73,0.00,CLR,FEW,0.00,0.0,WeatherDisplay:10.37,2013-03-31 11:02:00,
2013-03-31 07:07:00,28.0,20.5,30.08,NW,312,0.0,0.0,73,0.00,CLR,FEW,0.00,0.0,WeatherDisplay:10.37,2013-03-31 11:07:00,
2013-03-31 07:12:00,28.0,20.5,30.08,NW,312,0.0,0.0,73,0.00,CLR,FEW,0.00,0.5,WeatherDisplay:10.37,2013-03-31 11:12:00,
2013-03-31 07:18:00,28.0,20.5,30.08,NW,313,0.0,0.0,73,0.00,CLR,FEW,0.00,1.1,WeatherDisplay:10.37,2013-03-31 11:18:00,
2013-03-31 07:23:00,28.2,21.0,30.08,NW,312,0.0,0.0,74,0.00,CLR,FEW,0.00,1.6,WeatherDisplay:10.37,2013-03-31 11:23:00,
2013-03-31 07:28:00,28.4,21.2,30.08,NW,311,0.0,0.0,74,0.00,CLR,FEW,0.00,2.1,WeatherDisplay:10.37,2013-03-31 11:28:00,
2013-03-31 07:33:00,28.6,21.3,30.08,NW,312,0.0,0.0,74,0.00,CLR,FEW,0.00,2.4,WeatherDisplay:10.37,2013-03-31 11:33:00,
2013-03-31 07:38:00,28.8,21.5,30.08,NW,311,0.0,0.0,74,0.00,CLR,FEW,0.00,2.7,WeatherDisplay:10.37,2013-03-31 11:38:00,
2013-03-31 07:43:00,29.1,21.9,30.08,NW,312,0.0,0.0,74,0.00,CLR,FEW,0.00,2.8,WeatherDisplay:10.37,2013-03-31 11:43:00,
2013-03-31 07:48:00,29.5,22.2,30.08,NW,312,0.0,0.0,74,0.00,CLR,FEW,0.00,2.9,WeatherDisplay:10.37,2013-03-31 11:48:00,
2013-03-31 07:53:00,29.7,22.7,30.08,NW,312,0.0,0.0,75,0.00,CLR,FEW,0.00,3.0,WeatherDisplay:10.37,2013-03-31 11:53:00,
2013-03-31 07:58:00,30.2,23.2,30.08,NW,311,0.0,0.0,75,0.00,CLR,FEW,0.00,2.9,WeatherDisplay:10.37,2013-03-31 11:58:00,
2013-03-31 08:03:00,30.6,23.6,30.08,NW,311,0.0,0.0,75,0.00,FEW,,0.00,2.3,WeatherDisplay:10.37,2013-03-31 12:03:00,
2013-03-31 08:08:00,31.1,24.1,30.08,NW,312,0.0,0.0,75,0.00,FEW,,0.00,1.6,WeatherDisplay:10.37,2013-03-31 12:08:00,
2013-03-31 08:13:00,31.6,24.6,30.08,NW,312,0.0,0.0,75,0.00,FEW,,0.00,0.7,WeatherDisplay:10.37,2013-03-31 12:13:00,
2013-03-31 08:18:00,32.4,25.3,30.08,NW,312,0.0,0.0,75,0.00,FEW,,0.00,0.0,WeatherDisplay:10.37,2013-03-31 12:18:00,
2013-03-31 08:23:00,33.1,26.0,30.08,NW,312,0.0,0.0,75,0.00,FEW,,0.00,0.0,WeatherDisplay:10.37,2013-03-31 12:23:00,
2013-03-31 08:28:00,33.6,26.2,30.08,NW,312,0.0,0.0,74,0.00,FEW,,0.00,0.0,WeatherDisplay:10.37,2013-03-31 12:28:00,
2013-03-31 08:33:00,34.5,27.1,30.08,NW,312,0.0,0.0,74,0.00,FEW,,0.00,0.0,WeatherDisplay:10.37,2013-03-31 12:33:00,
2013-03-31 08:38:00,35.4,27.6,30.08,ENE,68,0.0,0.0,73,0.00,FEW,,0.00,0.0,WeatherDisplay:10.37,2013-03-31 12:38:00,
2013-03-31 08:43:00,36.3,28.5,30.08,SE,144,0.0,0.0,73,0.00,FEW,,0.00,0.0,WeatherDisplay:10.37,2013-03-31 12:43:00,
2013-03-31 08:48:00,37.8,29.2,30.08,SE,144,0.0,0.0,71,0.00,FEW,,0.00,0.0,WeatherDisplay:10.37,2013-03-31 12:48:00,
2013-03-31 08:53:00,38.8,29.9,30.08,SE,144,0.0,0.0,70,0.00,FEW,,0.00,0.0,WeatherDisplay:10.37,2013-03-31 12:53:00,
2013-03-31 08:58:00,39.9,30.6,30.08,SE,144,0.0,0.0,69,0.00,FEW,,0.00,0.0,WeatherDisplay:10.37,2013-03-31 12:58:00,
2013-03-31 09:03:00,40.6,30.9,30.08,SE,144,0.0,0.0,68,0.00,FEW,,0.00,0.0,WeatherDisplay:10.37,2013-03-31 13:03:00,
2013-03-31 09:08:00,41.7,31.6,30.08,SE,144,0.0,0.0,67,0.00,FEW,,0.00,0.0,WeatherDisplay:10.37,2013-03-31 13:08:00,
2013-03-31 09:13:00,42.8,31.8,30.06,SE,144,0.0,0.0,65,0.00,FEW,,0.00,0.0,WeatherDisplay:10.37,2013-03-31 13:13:00,
2013-03-31 09:18:00,43.9,32.9,30.06,SSW,213,0.0,0.0,65,0.00,FEW,,0.00,0.0,WeatherDisplay:10.37,2013-03-31 13:18:00,
2013-03-31 09:23:00,45.0,33.5,30.06,SSE,157,0.0,0.0,64,0.00,FEW,,0.00,0.0,WeatherDisplay:10.37,2013-03-31 13:23:00,
2013-03-31 09:28:00,46.0,34.1,30.06,SSE,152,0.0,0.0,63,0.00,FEW,,0.00,0.0,WeatherDisplay:10.37,2013-03-31 13:28:00,
2013-03-31 09:33:00,46.9,33.8,30.06,SSE,154,0.0,0.0,60,0.00,FEW,,0.00,0.0,WeatherDisplay:10.37,2013-03-31 13:33:00,
2013-03-31 09:38:00,48.0,33.9,30.06,South,177,0.0,0.0,58,0.00,FEW,,0.00,0.0,WeatherDisplay:10.37,2013-03-31 13:38:00,
2013-03-31 09:43:00,48.9,33.9,30.06,ESE,113,0.0,0.0,56,0.00,FEW,,0.00,0.0,WeatherDisplay:10.37,2013-03-31 13:43:00,
2013-03-31 09:48:00,49.8,34.3,30.06,SSW,198,3.5,3.5,55,0.00,FEW,,0.00,0.0,WeatherDisplay:10.37,2013-03-31 13:48:00,
2013-03-31 09:53:00,50.9,34.8,30.06,SSE,159,0.0,0.0,54,0.00,FEW,,0.00,0.0,WeatherDisplay:10.37,2013-03-31 13:53:00,
2013-03-31 09:58:00,51.8,35.2,30.06,SE,141,0.0,0.0,53,0.00,FEW,,0.00,0.0,WeatherDisplay:10.37,2013-03-31 13:58:00,
2013-03-31 10:03:00,52.9,34.7,30.06,SW,227,0.0,0.0,50,0.00,FEW,,0.00,0.0,WeatherDisplay:10.37,2013-03-31 14:03:00,
2013-03-31 10:08:00,53.8,33.5,30.06,SW,223,5.8,5.8,46,0.00,FEW,,0.00,0.0,WeatherDisplay:10.37,2013-03-31 14:08:00,
2013-03-31 10:13:00,54.5,33.0,30.06,South,185,10.4,10.4,44,0.00,FEW,,0.00,0.0,WeatherDisplay:10.37,2013-03-31 14:13:00,
2013-03-31 10:18:00,55.0,31.1,30.06,SW,218,9.2,9.2,40,0.00,FEW,,0.00,0.0,WeatherDisplay:10.37,2013-03-31 14:18:00,
2013-03-31 10:23:00,55.4,31.5,30.06,SW,216,6.9,6.9,40,0.00,FEW,,0.00,0.0,WeatherDisplay:10.37,2013-03-31 14:23:00,
2013-03-31 10:28:00,55.8,29.9,30.06,SSE,166,10.4,10.4,37,0.00,FEW,,0.00,0.0,WeatherDisplay:10.37,2013-03-31 14:28:00,
2013-03-31 10:33:00,55.9,30.0,30.06,SSW,207,8.1,8.1,37,0.00,FEW,,0.00,0.0,WeatherDisplay:10.37,2013-03-31 14:33:00,
2013-03-31 10:38:00,56.3,30.3,30.06,SSW,201,8.1,8.1,37,0.00,FEW,,0.00,0.0,WeatherDisplay:10.37,2013-03-31 14:38:00,
2013-03-31 10:43:00,56.5,30.5,30.06,South,181,8.1,8.1,37,0.00,FEW,,0.00,0.0,WeatherDisplay:10.37,2013-03-31 14:43:00,
2013-03-31 10:48:00,56.5,30.5,30.06,SSW,205,11.5,11.5,37,0.00,FEW,,0.00,0.0,WeatherDisplay:10.37,2013-03-31 14:48:00,
2013-03-31 10:53:00,56.7,30.7,30.06,SSW,200,8.1,8.1,37,0.00,FEW,,0.00,0.0,WeatherDisplay:10.37,2013-03-31 14:53:00,
2013-03-31 10:58:00,57.2,31.1,30.06,SSE,148,5.8,5.8,37,0.00,FEW,,0.00,0.0,WeatherDisplay:10.37,2013-03-31 14:58:00,
2013-03-31 11:03:00,57.7,31.6,30.06,SSW,204,8.1,8.1,37,0.00,FEW,,0.00,0.0,WeatherDisplay:10.37,2013-03-31 15:03:00,
2013-03-31 11:08:00,57.7,31.6,30.06,South,173,13.8,13.8,37,0.00,FEW,,0.00,0.0,WeatherDisplay:10.37,2013-03-31 15:08:00,
2013-03-31 11:13:00,57.6,31.5,30.06,South,177,5.8,5.8,37,0.00,FEW,,0.00,0.0,WeatherDisplay:10.37,2013-03-31 15:13:00,
2013-03-31 11:18:00,57.7,31.6,30.06,SSW,212,8.1,8.1,37,0.00,BKN,FEW,0.00,0.0,WeatherDisplay:10.37,2013-03-31 15:18:00,
2013-03-31 11:23:00,58.1,31.9,30.06,SW,232,9.2,9.2,37,0.00,BKN,FEW,0.00,0.0,WeatherDisplay:10.37,2013-03-31 15:23:00,
2013-03-31 11:29:00,58.6,32.4,30.06,SSE,161,10.4,10.4,37,0.00,BKN,FEW,0.00,0.0,WeatherDisplay:10.37,2013-03-31 15:29:00,
2013-03-31 11:34:00,59.2,32.9,30.06,South,190,8.1,8.1,37,0.00,BKN,FEW,0.00,0.0,WeatherDisplay:10.37,2013-03-31 15:34:00,
2013-03-31 11:39:00,59.4,33.1,30.06,SW,217,11.5,11.5,37,0.00,BKN,FEW,0.00,0.0,WeatherDisplay:10.37,2013-03-31 15:39:00,
2013-03-31 11:44:00,59.0,32.7,30.03,South,188,11.5,11.5,37,0.00,BKN,FEW,0.00,0.0,WeatherDisplay:10.37,2013-03-31 15:44:00,
2013-03-31 11:49:00,59.0,32.7,30.03,SSW,196,12.7,12.7,37,0.00,BKN,FEW,0.00,0.0,WeatherDisplay:10.37,2013-03-31 15:49:00,
2013-03-31 11:54:00,59.2,32.9,30.03,SSW,198,8.1,8.1,37,0.00,BKN,FEW,0.00,0.0,WeatherDisplay:10.37,2013-03-31 15:54:00,
2013-03-31 11:59:00,59.7,33.4,30.03,SW,222,10.4,10.4,37,0.00,BKN,FEW,0.00,0.0,WeatherDisplay:10.37,2013-03-31 15:59:00,
2013-03-31 12:04:00,59.5,33.2,30.03,SSW,194,12.7,12.7,37,0.00,BKN,FEW,0.00,0.0,WeatherDisplay:10.37,2013-03-31 16:04:00,
2013-03-31 12:09:00,59.4,33.1,30.03,West,266,11.5,11.5,37,0.00,BKN,FEW,0.00,0.0,WeatherDisplay:10.37,2013-03-31 16:09:00,
2013-03-31 12:14:00,59.4,33.1,30.03,SW,232,8.1,11.4,37,0.00,BKN,FEW,0.00,0.0,WeatherDisplay:10.37,2013-03-31 16:14:00,
2013-03-31 12:19:00,59.4,33.1,30.03,SW,224,10.4,10.4,37,0.00,BKN,FEW,0.00,0.0,WeatherDisplay:10.37,2013-03-31 16:19:00,
2013-03-31 12:24:00,59.4,33.1,30.03,WSW,239,9.2,9.2,37,0.00,BKN,FEW,0.00,0.0,WeatherDisplay:10.37,2013-03-31 16:24:00,
2013-03-31 12:29:00,59.7,33.4,30.03,WSW,250,8.1,8.1,37,0.00,BKN,FEW,0.00,0.0,WeatherDisplay:10.37,2013-03-31 16:29:00,
2013-03-31 12:34:00,60.1,33.7,30.03,SSW,202,10.4,10.4,37,0.00,BKN,FEW,0.00,0.0,WeatherDisplay:10.37,2013-03-31 16:34:00,
2013-03-31 12:39:00,60.1,33.7,30.03,SW,218,10.4,10.4,37,0.00,BKN,FEW,0.00,0.0,WeatherDisplay:10.37,2013-03-31 16:39:00,
2013-03-31 12:44:00,60.6,34.2,30.03,SSW,203,5.8,5.8,37,0.00,BKN,FEW,0.00,0.0,WeatherDisplay:10.37,2013-03-31 16:44:00,
2013-03-31 12:49:00,60.8,33.7,30.03,SSW,196,11.5,11.5,36,0.00,BKN,FEW,0.00,0.0,WeatherDisplay:10.37,2013-03-31 16:49:00,
2013-03-31 12:54:00,60.3,33.9,30.00,South,185,11.5,11.5,37,0.00,BKN,FEW,0.00,0.0,WeatherDisplay:10.37,2013-03-31 16:54:00,
2013-03-31 12:59:00,60.1,33.7,30.00,WSW,237,12.7,12.7,37,0.00,BKN,FEW,0.00,0.0,WeatherDisplay:10.37,2013-03-31 16:59:00,
2013-03-31 13:04:00,59.7,33.4,30.00,SSW,202,15.0,15.0,37,0.00,BKN,FEW,0.00,0.0,WeatherDisplay:10.37,2013-03-31 17:04:00,
2013-03-31 13:09:00,59.5,33.2,30.00,West,266,11.5,11.5,37,0.00,BKN,FEW,0.00,0.0,WeatherDisplay:10.37,2013-03-31 17:09:00,
2013-03-31 13:14:00,59.5,33.2,30.00,SSW,192,5.8,5.8,37,0.00,BKN,FEW,0.00,0.0,WeatherDisplay:10.37,2013-03-31 17:14:00,
2013-03-31 13:19:00,59.5,33.2,30.00,ENE,61,5.8,6.3,37,0.00,BKN,FEW,0.00,0.0,WeatherDisplay:10.37,2013-03-31 17:19:00,
2013-03-31 13:24:00,59.7,33.4,30.00,SSW,204,8.1,8.1,37,0.00,BKN,FEW,0.00,0.0,WeatherDisplay:10.37,2013-03-31 17:24:00,
2013-03-31 13:29:00,59.9,33.5,30.00,SSW,209,11.5,11.5,37,0.00,BKN,FEW,0.00,0.0,WeatherDisplay:10.37,2013-03-31 17:29:00,
2013-03-31 13:34:00,59.7,33.4,30.00,WSW,244,6.9,6.9,37,0.00,BKN,FEW,0.00,0.0,WeatherDisplay:10.37,2013-03-31 17:34:00,
2013-03-31 13:39:00,59.7,33.4,30.00,SSW,199,12.7,12.7,37,0.00,BKN,FEW,0.00,0.0,WeatherDisplay:10.37,2013-03-31 17:39:00,
2013-03-31 13:43:00,59.4,33.1,30.00,SSW,206,5.8,6.3,37,0.00,BKN,FEW,0.00,0.0,WeatherDisplay:10.37,2013-03-31 17:43:00,
2013-03-31 13:48:00,59.4,33.1,30.00,SW,231,11.5,11.5,37,0.00,BKN,FEW,0.00,0.0,WeatherDisplay:10.37,2013-03-31 17:48:00,
2013-03-31 13:54:00,59.4,33.1,30.00,SSE,163,8.1,8.7,37,0.00,BKN,FEW,0.00,0.0,WeatherDisplay:10.37,2013-03-31 17:54:00,
2013-03-31 13:59:00,59.4,33.1,30.00,South,189,8.1,8.1,37,0.00,BKN,FEW,0.00,0.0,WeatherDisplay:10.37,2013-03-31 17:59:00,
2013-03-31 14:04:00,59.5,33.2,30.00,SW,235,18.4,18.4,37,0.00,OVC,FEW,0.00,0.0,WeatherDisplay:10.37,2013-03-31 18:04:00,
2013-03-31 14:09:00,59.2,32.9,30.00,West,263,9.2,9.2,37,0.00,OVC,FEW,0.00,0.0,WeatherDisplay:10.37,2013-03-31 18:09:00,
2013-03-31 14:14:00,59.4,33.1,29.97,SW,227,8.1,8.1,37,0.00,OVC,FEW,0.00,0.0,WeatherDisplay:10.37,2013-03-31 18:14:00,
2013-03-31 14:19:00,59.5,33.2,29.97,South,185,8.1,8.1,37,0.00,OVC,FEW,0.00,0.0,WeatherDisplay:10.37,2013-03-31 18:19:00,
2013-03-31 14:24:00,59.4,33.1,29.97,SSW,198,6.9,6.9,37,0.00,OVC,FEW,0.00,0.0,WeatherDisplay:10.37,2013-03-31 18:24:00,
2013-03-31 14:29:00,59.0,32.7,29.97,South,187,8.1,8.1,37,0.00,OVC,FEW,0.00,0.0,WeatherDisplay:10.37,2013-03-31 18:29:00,
2013-03-31 14:34:00,58.6,32.4,29.97,SSW,201,10.4,10.4,37,0.00,OVC,FEW,0.00,0.0,WeatherDisplay:10.37,2013-03-31 18:34:00,
2013-03-31 14:39:00,58.5,32.3,29.97,SSE,162,5.8,5.8,37,0.00,OVC,FEW,0.00,0.0,WeatherDisplay:10.37,2013-03-31 18:39:00,
2013-03-31 14:44:00,58.1,31.9,29.97,SW,220,12.7,12.7,37,0.00,OVC,FEW,0.00,0.0,WeatherDisplay:10.37,2013-03-31 18:44:00,
2013-03-31 14:49:00,57.7,31.6,29.97,SSE,159,18.4,18.4,37,0.00,OVC,FEW,0.00,0.0,WeatherDisplay:10.37,2013-03-31 18:49:00,
2013-03-31 14:54:00,57.4,31.3,29.97,SW,225,17.3,17.3,37,0.00,OVC,FEW,0.00,0.0,WeatherDisplay:10.37,2013-03-31 18:54:00,
2013-03-31 14:59:00,57.0,31.0,29.97,South,187,17.3,17.3,37,0.00,OVC,FEW,0.00,0.0,WeatherDisplay:10.37,2013-03-31 18:59:00,
2013-03-31 15:04:00,56.8,30.8,29.97,SW,227,9.2,9.2,37,0.00,OVC,FEW,0.00,0.0,WeatherDisplay:10.37,2013-03-31 19:04:00,
2013-03-31 15:09:00,56.8,30.8,29.97,South,177,15.0,15.0,37,0.00,OVC,FEW,0.00,0.0,WeatherDisplay:10.37,2013-03-31 19:09:00,
2013-03-31 15:14:00,56.8,30.8,29.97,SW,222,12.7,12.7,37,0.00,OVC,FEW,0.00,0.0,WeatherDisplay:10.37,2013-03-31 19:14:00,
2013-03-31 15:19:00,56.8,30.8,29.97,SW,219,12.7,12.7,37,0.00,OVC,FEW,0.00,0.0,WeatherDisplay:10.37,2013-03-31 19:19:00,
2013-03-31 15:24:00,56.8,30.8,29.97,SW,234,11.5,11.5,37,0.00,OVC,FEW,0.00,0.0,WeatherDisplay:10.37,2013-03-31 19:24:00,
2013-03-31 15:29:00,56.7,30.7,29.97,SSW,197,12.7,12.7,37,0.00,OVC,FEW,0.00,0.0,WeatherDisplay:10.37,2013-03-31 19:29:00,
2013-03-31 15:34:00,56.7,30.7,29.97,South,187,10.4,10.4,37,0.00,OVC,FEW,0.00,0.0,WeatherDisplay:10.37,2013-03-31 19:34:00,
2013-03-31 15:40:00,56.5,30.5,29.97,SSW,200,12.7,12.7,37,0.00,OVC,FEW,0.00,0.0,WeatherDisplay:10.37,2013-03-31 19:40:00,
2013-03-31 15:45:00,56.3,30.3,29.97,South,177,9.2,9.2,37,0.00,OVC,FEW,0.00,0.0,WeatherDisplay:10.37,2013-03-31 19:45:00,
2013-03-31 15:50:00,56.5,30.5,29.97,SSE,148,13.6,13.6,37,0.00,OVC,FEW,0.00,0.0,WeatherDisplay:10.37,2013-03-31 19:50:00,
2013-03-31 15:55:00,56.3,30.3,29.97,SSW,200,11.5,11.5,37,0.00,OVC,FEW,0.00,0.0,WeatherDisplay:10.37,2013-03-31 19:55:00,
2013-03-31 16:00:00,56.3,30.3,29.97,South,184,12.7,12.7,37,0.00,OVC,FEW,0.00,0.0,WeatherDisplay:10.37,2013-03-31 20:00:00,
2013-03-31 16:05:00,56.1,30.2,29.97,SSW,205,11.5,11.5,37,0.00,OVC,FEW,0.00,0.0,WeatherDisplay:10.37,2013-03-31 20:05:00,
2013-03-31 16:10:00,55.9,30.0,29.94,SW,226,10.4,10.4,37,0.00,OVC,FEW,0.00,0.0,WeatherDisplay:10.37,2013-03-31 20:10:00,
2013-03-31 16:15:00,55.6,29.7,29.94,SSW,201,12.7,12.7,37,0.00,OVC,FEW,0.00,0.0,WeatherDisplay:10.37,2013-03-31 20:15:00,
2013-03-31 16:20:00,55.4,29.5,29.94,SW,224,11.5,11.5,37,0.00,OVC,FEW,0.00,0.0,WeatherDisplay:10.37,2013-03-31 20:20:00,
2013-03-31 16:25:00,55.4,29.5,29.94,SSW,202,8.1,8.1,37,0.00,OVC,FEW,0.00,0.0,WeatherDisplay:10.37,2013-03-31 20:25:00,
2013-03-31 16:30:00,55.2,30.0,29.94,SSW,209,12.7,12.7,38,0.00,OVC,FEW,0.00,0.0,WeatherDisplay:10.37,2013-03-31 20:30:00,
2013-03-31 16:35:00,54.7,29.5,29.94,South,190,8.1,8.1,38,0.00,OVC,FEW,0.00,0.0,WeatherDisplay:10.37,2013-03-31 20:35:00,
2013-03-31 16:40:00,54.7,29.5,29.94,South,173,9.2,9.2,38,0.00,OVC,FEW,0.00,0.0,WeatherDisplay:10.37,2013-03-31 20:40:00,
2013-03-31 16:45:00,54.3,29.2,29.94,SSW,203,15.0,15.0,38,0.00,OVC,FEW,0.00,0.0,WeatherDisplay:10.37,2013-03-31 20:45:00,
2013-03-31 16:50:00,54.1,29.1,29.94,South,180,5.8,5.8,38,0.00,OVC,FEW,0.00,0.0,WeatherDisplay:10.37,2013-03-31 20:50:00,
2013-03-31 16:55:00,54.1,29.1,29.94,SE,130,10.4,10.4,38,0.00,OVC,FEW,0.00,0.0,WeatherDisplay:10.37,2013-03-31 20:55:00,
2013-03-31 17:00:00,54.0,28.9,29.94,SW,232,9.2,9.2,38,0.00,OVC,FEW,0.00,0.0,WeatherDisplay:10.37,2013-03-31 21:00:00,
2013-03-31 17:05:00,53.6,29.8,29.94,SSE,152,11.5,11.5,40,0.00,OVC,FEW,0.00,0.0,WeatherDisplay:10.37,2013-03-31 21:05:00,
2013-03-31 17:10:00,53.4,30.9,29.94,SSW,192,12.7,12.7,42,0.00,OVC,FEW,0.00,0.0,WeatherDisplay:10.37,2013-03-31 21:10:00,
2013-03-31 17:15:00,53.2,30.7,29.94,SSW,197,5.8,5.8,42,0.00,OVC,FEW,0.00,0.0,WeatherDisplay:10.37,2013-03-31 21:15:00,
2013-03-31 17:20:00,53.1,30.6,29.94,South,177,13.8,13.8,42,0.00,OVC,FEW,0.00,0.0,WeatherDisplay:10.37,2013-03-31 21:20:00,
2013-03-31 17:25:00,53.1,30.6,29.94,SE,134,12.7,12.7,42,0.00,OVC,FEW,0.00,0.0,WeatherDisplay:10.37,2013-03-31 21:25:00,
2013-03-31 17:30:00,52.9,30.4,29.94,SW,231,10.4,10.4,42,0.00,OVC,FEW,0.00,0.0,WeatherDisplay:10.37,2013-03-31 21:30:00,
2013-03-31 17:35:00,52.5,30.1,29.94,SSE,158,10.4,10.4,42,0.00,OVC,FEW,0.00,0.0,WeatherDisplay:10.37,2013-03-31 21:35:00,
2013-03-31 17:40:00,52.5,30.1,29.94,SW,234,9.2,9.2,42,0.00,OVC,FEW,0.00,0.0,WeatherDisplay:10.37,2013-03-31 21:40:00,
2013-03-31 17:45:00,52.3,31.0,29.94,SSW,195,9.2,9.2,44,0.00,OVC,FEW,0.00,0.0,WeatherDisplay:10.37,2013-03-31 21:45:00,
2013-03-31 17:50:00,52.2,30.9,29.94,South,180,5.8,5.8,44,0.00,OVC,FEW,0.00,0.0,WeatherDisplay:10.37,2013-03-31 21:50:00,
2013-03-31 17:55:00,52.2,30.9,29.94,South,191,11.5,11.5,44,0.00,OVC,FEW,0.00,0.0,WeatherDisplay:10.37,2013-03-31 21:55:00,
2013-03-31 18:00:00,52.0,30.7,29.94,SW,215,8.1,8.1,44,0.00,OVC,FEW,0.00,0.0,WeatherDisplay:10.37,2013-03-31 22:00:00,
2013-03-31 18:05:00,52.0,30.7,29.94,SSE,168,9.2,9.2,44,0.00,OVC,FEW,0.00,0.0,WeatherDisplay:10.37,2013-03-31 22:05:00,
2013-03-31 18:10:00,51.8,30.6,29.94,South,189,8.1,8.1,44,0.00,OVC,FEW,0.00,0.0,WeatherDisplay:10.37,2013-03-31 22:10:00,
2013-03-31 18:15:00,51.8,32.7,29.94,SSW,205,12.7,12.7,48,0.00,OVC,FEW,0.00,0.0,WeatherDisplay:10.37,2013-03-31 22:15:00,
2013-03-31 18:20:00,51.6,32.6,29.94,South,189,12.7,12.7,48,0.00,OVC,FEW,0.00,0.0,WeatherDisplay:10.37,2013-03-31 22:20:00,
2013-03-31 18:25:00,51.4,32.4,29.94,SSW,199,8.1,8.1,48,0.00,OVC,FEW,0.00,0.0,WeatherDisplay:10.37,2013-03-31 22:25:00,
2013-03-31 18:30:00,51.4,32.4,29.94,SSE,165,5.8,5.8,48,0.00,OVC,FEW,0.00,0.0,WeatherDisplay:10.37,2013-03-31 22:30:00,
2013-03-31 18:35:00,51.3,32.2,29.94,SW,214,8.1,8.1,48,0.00,OVC,FEW,0.00,0.0,WeatherDisplay:10.37,2013-03-31 22:35:00,
2013-03-31 18:40:00,51.3,32.2,29.91,SSE,163,8.1,8.1,48,0.00,OVC,FEW,0.00,0.0,WeatherDisplay:10.37,2013-03-31 22:40:00,
2013-03-31 18:45:00,51.1,32.1,29.91,SSE,160,8.1,8.1,48,0.00,OVC,FEW,0.00,0.0,WeatherDisplay:10.37,2013-03-31 22:45:00,
2013-03-31 18:50:00,51.1,33.6,29.91,SE,133,9.2,9.2,51,0.00,OVC,FEW,0.00,0.0,WeatherDisplay:10.37,2013-03-31 22:50:00,
2013-03-31 18:55:00,50.9,33.4,29.91,SW,219,8.1,8.1,51,0.00,OVC,FEW,0.00,0.0,WeatherDisplay:10.37,2013-03-31 22:55:00,
2013-03-31 19:00:00,50.9,33.4,29.91,South,183,5.8,5.8,51,0.00,OVC,FEW,0.00,0.0,WeatherDisplay:10.37,2013-03-31 23:00:00,
2013-03-31 19:05:00,50.9,34.4,29.91,SSW,212,9.2,9.2,53,0.00,OVC,FEW,0.00,0.0,WeatherDisplay:10.37,2013-03-31 23:05:00,
2013-03-31 19:10:00,50.7,34.2,29.91,SSE,161,8.1,8.1,53,0.00,OVC,FEW,0.00,0.0,WeatherDisplay:10.37,2013-03-31 23:10:00,
2013-03-31 19:15:00,50.5,34.0,29.91,SSE,156,4.6,4.6,53,0.00,OVC,FEW,0.00,0.0,WeatherDisplay:10.37,2013-03-31 23:15:00,
2013-03-31 19:20:00,50.5,34.0,29.91,SSW,201,5.8,5.8,53,0.00,OVC,FEW,0.00,0.0,WeatherDisplay:10.37,2013-03-31 23:20:00,
2013-03-31 19:25:00,50.4,34.3,29.91,SE,139,5.8,5.8,54,0.00,OVC,FEW,0.00,0.0,WeatherDisplay:10.37,2013-03-31 23:25:00,
2013-03-31 19:30:00,50.2,34.2,29.91,SE,144,8.1,8.1,54,0.00,OVC,FEW,0.00,0.0,WeatherDisplay:10.37,2013-03-31 23:30:00,
2013-03-31 19:35:00,49.8,34.3,29.91,SSE,158,5.8,5.8,55,0.00,OVC,FEW,0.00,0.0,WeatherDisplay:10.37,2013-03-31 23:35:00,
2013-03-31 19:40:00,49.5,34.8,29.91,SE,141,5.8,5.8,57,0.00,OVC,FEW,0.00,0.0,WeatherDisplay:10.37,2013-03-31 23:40:00,
2013-03-31 19:45:00,49.1,35.4,29.91,ESE,119,9.2,9.2,59,0.00,OVC,FEW,0.00,0.0,WeatherDisplay:10.37,2013-03-31 23:45:00,
2013-03-31 19:50:00,48.9,35.2,29.91,SE,134,8.1,8.1,59,0.00,OVC,FEW,0.00,0.0,WeatherDisplay:10.37,2013-03-31 23:50:00,
2013-03-31 19:55:00,48.6,35.3,29.88,SSE,158,6.9,6.9,60,0.00,OVC,FEW,0.00,0.0,WeatherDisplay:10.37,2013-03-31 23:55:00,
2013-03-31 20:00:00,48.2,35.8,29.88,SE,146,4.6,4.6,62,0.00,OVC,FEW,0.00,0.0,WeatherDisplay:10.37,2013-04-01 00:00:00,
2013-03-31 20:05:00,48.0,36.0,29.88,South,169,5.8,5.8,63,0.00,-RA,FEW,0.00,0.0,WeatherDisplay:10.37,2013-04-01 00:05:00,
2013-03-31 20:10:00,47.7,36.5,29.88,South,173,5.8,5.8,65,0.00,-RA,FEW,0.00,0.0,WeatherDisplay:10.37,2013-04-01 00:10:00,
2013-03-31 20:15:00,47.5,36.3,29.88,SE,143,5.8,5.8,65,0.00,-RA,FEW,0.00,0.0,WeatherDisplay:10.37,2013-04-01 00:15:00,
2013-03-31 20:20:00,47.5,36.3,29.88,SSE,159,5.8,5.8,65,0.00,-RA,FEW,0.00,0.0,WeatherDisplay:10.37,2013-04-01 00:20:00,
2013-03-31 20:25:00,47.3,36.1,29.88,SSE,148,3.5,0.0,65,0.00,-RA,FEW,0.00,0.0,WeatherDisplay:10.37,2013-04-01 00:25:00,
2013-03-31 20:30:00,47.3,36.1,29.88,SE,131,4.0,4.0,65,0.00,-RA,FEW,0.00,0.0,WeatherDisplay:10.37,2013-04-01 00:30:00,
2013-03-31 20:35:00,47.3,36.5,29.88,ESE,103,5.8,5.8,66,0.00,-RA,FEW,0.00,0.0,WeatherDisplay:10.37,2013-04-01 00:35:00,
2013-03-31 20:40:00,47.3,36.5,29.85,SE,130,5.8,5.8,66,0.00,-RA,FEW,0.00,0.0,WeatherDisplay:10.37,2013-04-01 00:40:00,
2013-03-31 20:45:00,47.3,36.5,29.85,ESE,103,4.6,4.6,66,0.00,-RA,FEW,0.00,0.0,WeatherDisplay:10.37,2013-04-01 00:45:00,
2013-03-31 20:50:00,47.3,36.5,29.85,SSW,198,6.9,6.9,66,0.00,-RA,FEW,0.00,0.0,WeatherDisplay:10.37,2013-04-01 00:50:00,
2013-03-31 20:55:00,47.3,36.5,29.85,SSE,147,5.8,5.8,66,0.00,-RA,FEW,0.00,0.0,WeatherDisplay:10.37,2013-04-01 00:55:00,
2013-03-31 21:00:00,47.3,36.9,29.85,SE,137,3.5,4.0,67,0.00,-RA,FEW,0.00,0.0,WeatherDisplay:10.37,2013-04-01 01:00:00,
2013-03-31 21:05:00,47.3,36.9,29.85,ESE,117,4.6,4.6,67,0.00,-RA,FEW,0.00,0.0,WeatherDisplay:10.37,2013-04-01 01:05:00,
2013-03-31 21:10:00,47.3,36.9,29.85,SE,127,5.8,5.8,67,0.00,-RA,FEW,0.00,0.0,WeatherDisplay:10.37,2013-04-01 01:10:00,
2013-03-31 21:15:00,47.3,36.9,29.85,South,170,8.1,8.1,67,0.00,-RA,FEW,0.00,0.0,WeatherDisplay:10.37,2013-04-01 01:15:00,
2013-03-31 21:20:00,47.3,36.5,29.85,ESE,120,5.8,5.8,66,0.00,OVC,FEW,0.00,0.0,WeatherDisplay:10.37,2013-04-01 01:20:00,
2013-03-31 21:25:00,47.5,36.7,29.82,SE,138,5.8,5.8,66,0.00,OVC,FEW,0.00,0.0,WeatherDisplay:10.37,2013-04-01 01:25:00,
2013-03-31 21:30:00,47.7,36.5,29.82,ESE,123,5.8,5.8,65,0.00,OVC,FEW,0.00,0.0,WeatherDisplay:10.37,2013-04-01 01:30:00,
2013-03-31 21:35:00,47.8,36.6,29.82,SSE,160,10.4,10.4,65,0.00,OVC,FEW,0.00,0.0,WeatherDisplay:10.37,2013-04-01 01:35:00,
2013-03-31 21:40:00,47.8,36.2,29.82,SSE,150,8.1,8.1,64,0.00,OVC,FEW,0.00,0.0,WeatherDisplay:10.37,2013-04-01 01:40:00,
2013-03-31 21:45:00,48.0,36.4,29.82,SSE,151,8.1,8.1,64,0.00,OVC,FEW,0.00,0.0,WeatherDisplay:10.37,2013-04-01 01:45:00,
2013-03-31 21:50:00,48.0,36.0,29.82,South,185,8.1,8.1,63,0.00,OVC,FEW,0.00,0.0,WeatherDisplay:10.37,2013-04-01 01:50:00,
2013-03-31 21:55:00,48.2,36.2,29.82,SSE,147,8.1,8.1,63,0.00,OVC,FEW,0.00,0.0,WeatherDisplay:10.37,2013-04-01 01:55:00,
2013-03-31 22:00:00,48.0,36.4,29.82,ESE,113,8.1,8.1,64,0.00,OVC,FEW,0.00,0.0,WeatherDisplay:10.37,2013-04-01 02:00:00,
2013-03-31 22:05:00,47.7,36.1,29.82,SSE,157,5.8,5.8,64,0.00,-RA,FEW,0.00,0.0,WeatherDisplay:10.37,2013-04-01 02:05:00,
2013-03-31 22:10:00,47.5,35.9,29.79,South,180,8.1,8.1,64,0.00,-RA,FEW,0.00,0.0,WeatherDisplay:10.37,2013-04-01 02:10:00,
2013-03-31 22:15:00,47.5,36.3,29.79,SSE,163,5.8,5.8,65,0.00,-RA,FEW,0.00,0.0,WeatherDisplay:10.37,2013-04-01 02:15:00,
2013-03-31 22:20:00,47.3,36.1,29.79,SSW,193,5.8,5.8,65,0.00,-RA,FEW,0.00,0.0,WeatherDisplay:10.37,2013-04-01 02:20:00,
2013-03-31 22:25:00,47.3,36.5,29.79,SSE,149,4.6,4.6,66,0.00,-RA,FEW,0.00,0.0,WeatherDisplay:10.37,2013-04-01 02:25:00,
2013-03-31 22:30:00,47.3,36.5,29.79,SSW,194,5.8,5.8,66,0.00,-RA,FEW,0.00,0.0,WeatherDisplay:10.37,2013-04-01 02:30:00,
2013-03-31 22:35:00,47.3,36.5,29.79,SSE,147,6.9,6.9,66,0.00,-RA,FEW,0.00,0.0,WeatherDisplay:10.37,2013-04-01 02:35:00,
2013-03-31 22:40:00,47.1,36.7,29.76,SE,137,11.5,11.5,67,0.00,-RA,FEW,0.00,0.0,WeatherDisplay:10.37,2013-04-01 02:40:00,
2013-03-31 22:45:00,47.1,37.8,29.76,SE,145,8.1,8.1,70,0.00,-RA,FEW,0.00,0.0,WeatherDisplay:10.37,2013-04-01 02:45:00,
2013-03-31 22:50:00,46.9,38.4,29.76,SE,141,9.2,9.2,72,0.00,-RA,FEW,0.00,0.0,WeatherDisplay:10.37,2013-04-01 02:50:00,
2013-03-31 22:55:00,46.8,38.6,29.76,South,173,10.4,10.4,73,0.00,-RA,FEW,0.00,0.0,WeatherDisplay:10.37,2013-04-01 02:55:00,
2013-03-31 23:00:00,46.6,39.1,29.76,East,87,8.1,8.1,75,0.00,-RA,FEW,0.00,0.0,WeatherDisplay:10.37,2013-04-01 03:00:00,
2013-03-31 23:05:00,46.4,39.2,29.76,SSE,161,11.5,11.5,76,0.00,-RA,FEW,0.00,0.0,WeatherDisplay:10.37,2013-04-01 03:05:00,
2013-03-31 23:10:00,46.2,39.4,29.73,SE,145,5.8,5.8,77,0.00,-RA,FEW,0.00,0.0,WeatherDisplay:10.37,2013-04-01 03:10:00,
2013-03-31 23:15:00,46.0,39.2,29.73,SE,134,5.8,5.8,77,0.00,-RA,FEW,0.00,0.0,WeatherDisplay:10.37,2013-04-01 03:15:00,
2013-03-31 23:20:00,46.0,39.6,29.73,SSE,161,5.8,5.8,78,0.00,-RA,FEW,0.00,0.0,WeatherDisplay:10.37,2013-04-01 03:20:00,
2013-03-31 23:25:00,45.9,39.4,29.73,SE,137,5.8,5.8,78,0.00,-RA,FEW,0.00,0.0,WeatherDisplay:10.37,2013-04-01 03:25:00,
2013-03-31 23:30:00,45.9,39.7,29.73,SE,132,8.1,8.1,79,0.00,-RA,FEW,0.00,0.0,WeatherDisplay:10.37,2013-04-01 03:30:00,
2013-03-31 23:35:00,45.9,39.7,29.73,South,190,4.6,4.6,79,0.00,-RA,FEW,0.00,0.0,WeatherDisplay:10.37,2013-04-01 03:35:00,
2013-03-31 23:40:00,45.9,40.0,29.70,SSE,166,5.8,5.8,80,0.00,-RA,FEW,0.00,0.0,WeatherDisplay:10.37,2013-04-01 03:40:00,
2013-03-31 23:45:00,45.9,40.4,29.70,SE,127,8.1,8.1,81,0.00,-RA,FEW,0.00,0.0,WeatherDisplay:10.37,2013-04-01 03:45:00,
2013-03-31 23:50:00,45.9,40.4,29.70,SE,138,8.1,8.1,81,0.00,-RA,FEW,0.00,0.0,WeatherDisplay:10.37,2013-04-01 03:50:00,
2013-03-31 23:55:00,45.9,40.7,29.70,ESE,103,5.8,5.8,82,0.00,-RA,FEW,0.00,0.0,WeatherDisplay:10.37,2013-04-01 03:55:00,